User: anonymous   Login
Location: Lourdes
(43.1000°N, 0.0500°W)
Time: 17:45:00
(UTC+00:00)
Language:

CZ-4 R/B - Orbit

View from above orbital plane
View from above orbital plane
View from above satellite
View from above satellite

Ground track
Ground track

The orbit data is extracted from the following two-line orbital elements,

1 29507U 06046C   21128.02193744  .00001111  00000-0  90276-4 0  9995
2 29507  97.7322 154.1215 0047838 150.6927 209.6996 15.00825045794094
Epoch (UTC): 08 May 2021 00:31:35
Eccentricity: 0.0047838
inclination: 97.7322°
perigee height: 531 km
apogee height: 597 km
right ascension of ascending node: 154.1215°
argument of perigee: 150.6927°
revolutions per day: 15.00825045
mean anomaly at epoch: 209.6996°
orbit number at epoch: 79409

The dashed part of the orbit path shows where the satellite is in the earth's shadow,  

DLR